EW4389 Weather Reports


Display with metric or nautical units.
time (UTC)temp
F
wind
direction
speed
MPH
gust
MPH
rain 1hr
in
rain 24hr
in
rain mn
in
humidity
%
barometer
mb
20260905041539 63 327 3.0 5.0 0.00 0.00 0.00 50 1009.5
20260905040021 63 326 2.0 5.0 0.00 0.00 0.00 51 1009.6
20260905034518 63 327 3.0 6.0 0.00 0.00 0.00 51 1009.6
20260905033016 63 327 2.0 5.0 0.00 0.00 0.00 50 1009.7
20260905031511 64 339 3.0 5.0 0.00 0.00 0.00 50 1009.7
20260905030011 64 339 3.0 6.0 0.00 0.00 0.00 50 1009.7
20260905024502 64 339 3.0 4.0 0.00 0.04 0.00 52 1009.6
20260905023058 64 339 3.0 4.0 0.00 0.04 0.00 55 1009.7
20260905021553 64 339 3.0 5.0 0.00 0.04 0.00 57 1009.7
20260905020048 65 339 3.0 5.0 0.00 0.04 0.00 59 1009.6
20260905014544 65 339 2.0 5.0 0.00 0.33 0.00 60 1009.5
20260905013047 66 329 2.0 5.0 0.00 0.33 0.00 57 1009.4
20260905011535 66 329 1.0 4.0 0.00 0.33 0.00 55 1009.5
20260905010030 66 329 2.0 4.0 0.00 0.33 0.00 54 1009.7
20260905004525 67 326 3.0 5.0 0.00 0.36 0.00 53 1009.9
20260905003021 67 326 2.0 6.0 0.00 0.36 0.00 54 1009.7
20260905001516 67 329 2.0 4.0 0.00 0.36 0.00 54 1009.7
20260905000014 67 329 2.0 4.0 0.00 0.36 0.00 56 1009.5
20260904234508 68 329 3.0 5.0 0.00 0.36 0.00 57 1009.3
20260904233003 68 328 2.0 4.0 0.00 0.36 0.00 58 1009.0
20260904231600 69 330 2.0 4.0 0.00 0.36 0.00 59 1009.0
20260904230055 69 329 1.0 4.0 0.00 0.36 0.00 62 1008.8
20260904224550 69 329 2.0 5.0 0.00 0.36 0.00 62 1008.7
20260904223045 70 328 2.0 4.0 0.00 0.36 0.00 62 1008.7
20260904221544 70 329 1.0 4.0 0.00 0.36 0.00 62 1008.4
20260904220037 70 327 2.0 5.0 0.00 0.36 0.00 64 1008.3
20260904214532 70 328 2.0 6.0 0.00 0.36 0.00 66 1008.3
20260904213037 71 339 3.0 6.0 0.00 0.36 0.00 67 1008.5
20260904211523 71 329 4.0 9.0 0.00 0.36 0.00 67 1008.5
20260904210020 72 334 1.0 6.0 0.00 0.36 0.00 67 1008.7
20260904204520 72 321 3.0 6.0 0.00 0.36 0.00 68 1008.8
20260904203029 73 339 5.0 14.0 0.00 0.36 0.00 68 1008.9
20260904201518 73 339 5.0 11.0 0.00 0.36 0.00 68 1009.0
20260904200018 73 353 7.0 14.0 0.00 0.36 0.00 67 1009.0
20260904194517 73 318 4.0 9.0 0.00 0.36 0.00 68 1009.2
20260904193020 73 339 4.0 11.0 0.00 0.36 0.00 68 1009.4
20260904191516 73 323 5.0 10.0 0.00 0.36 0.00 68 1009.6
20260904190016 74 339 5.0 13.0 0.00 0.36 0.00 67 1009.6
20260904184521 74 339 8.0 15.0 0.00 0.36 0.00 67 1009.7
20260904183008 74 318 4.0 17.0 0.00 0.36 0.00 68 1009.7
20260904181517 74 310 10.0 13.0 0.00 0.36 0.00 67 1009.9
20260904180001 74 321 6.0 14.0 0.00 0.36 0.00 66 1009.9
20260904174558 73 312 7.0 13.0 0.00 0.36 0.00 67 1010.0
20260904173054 73 319 8.0 11.0 0.00 0.36 0.00 67 1010.3
20260904171613 73 334 6.0 13.0 0.00 0.36 0.00 66 1010.4
20260904170044 73 339 4.0 10.0 0.00 0.36 0.00 67 1010.4
20260904164540 74 339 7.0 12.0 0.00 0.36 0.00 66 1010.6
20260904163037 74 316 6.0 14.0 0.00 0.36 0.00 64 1010.6
20260904161534 73 358 2.0 10.0 0.00 0.36 0.00 64 1010.5
20260904160035 73 319 2.0 10.0 0.00 0.36 0.00 63 1010.4
20260904154538 73 339 2.0 9.0 0.00 0.36 0.00 60 1010.5
20260904153032 72 310 3.0 9.0 0.00 0.36 0.00 56 1010.7
20260904151524 71 334 5.0 9.0 0.00 0.36 0.00 58 1010.8
20260904150022 71 327 3.0 10.0 0.00 0.36 0.00 58 1010.4
20260904144520 70 325 3.0 9.0 0.00 0.36 0.00 53 1010.2
20260904143019 70 310 1.0 8.0 0.00 0.36 0.00 49 1010.2
20260904141514 69 300 4.0 9.0 0.00 0.36 0.00 42 1010.4
20260904140014 69 314 4.0 10.0 0.00 0.36 0.00 36 1010.5
20260904134509 67 313 3.0 9.0 0.00 0.36 0.00 35 1010.7
20260904133006 67 308 5.0 9.0 0.00 0.36 0.00 34 1010.8
20260904131506 66 313 5.0 8.0 0.00 0.36 0.00 34 1010.8
20260904130003 66 310 4.0 9.0 0.00 0.36 0.00 34 1010.8
20260904124502 65 314 1.0 5.0 0.00 0.36 0.00 34 1010.7
20260904123100 65 316 2.0 4.0 0.00 0.36 0.00 34 1010.8
20260904121559 64 316 1.0 3.0 0.00 0.36 0.00 34 1010.5
20260904114603 64 316 2.0 4.0 0.00 0.36 0.00 35 1010.4
20260904113056 64 317 2.0 4.0 0.00 0.36 0.00 35 1010.5
20260904111556 64 317 0.0 3.0 0.00 0.36 0.00 35 1010.3
20260904110054 64 317 1.0 5.0 0.00 0.36 0.00 35 1010.2
20260904104610 64 316 1.0 6.0 0.00 0.36 0.00 35 1010.3
20260904103058 64 317 3.0 6.0 0.00 0.36 0.00 35 1010.1
20260904101551 64 317 2.0 4.0 0.00 0.36 0.00 35 1009.9
20260904100107 64 317 3.0 6.0 0.00 0.36 0.00 35 1009.9
20260904094558 64 317 3.0 8.0 0.00 0.36 0.00 35 1009.9
20260904093047 64 310 4.0 8.0 0.00 0.36 0.00 35 1009.8
20260904091546 65 317 3.0 8.0 0.00 0.36 0.00 35 1009.8
20260904090043 65 322 4.0 9.0 0.00 0.36 0.00 34 1009.7
20260904084543 65 334 4.0 11.0 0.00 0.36 0.00 34 1009.7
20260904083039 65 330 4.0 8.0 0.00 0.36 0.00 34 1009.5
20260904081536 66 344 3.0 10.0 0.00 0.36 0.00 33 1009.2
20260904080036 66 334 3.0 9.0 0.00 0.36 0.00 33 1009.0
20260904074533 67 334 3.0 8.0 0.00 0.36 0.00 33 1008.9
20260904073035 67 329 3.0 5.0 0.00 0.36 0.00 33 1009.0
20260904071531 67 329 2.0 5.0 0.00 0.36 0.00 33 1008.9
20260904070038 68 328 3.0 10.0 0.00 0.36 0.00 33 1008.8
20260904064525 69 319 4.0 8.0 0.00 0.36 0.00 33 1008.7
20260904063024 69 310 4.0 6.0 0.00 0.36 0.00 33 1008.6
20260904061528 69 306 2.0 5.0 0.00 0.36 0.00 33 1008.8
20260904060026 69 305 2.0 4.0 0.00 0.36 0.00 33 1008.9
20260904054522 70 302 2.0 4.0 0.00 0.36 0.00 33 1009.2
20260904053025 70 305 1.0 5.0 0.00 0.36 0.00 32 1009.3
20260904051514 70 305 2.0 4.0 0.00 0.36 0.00 32 1009.4
20260904050026 70 305 2.0 5.0 0.00 0.36 0.00 32 1009.5
20260904044519 70 301 3.0 6.0 0.00 0.36 0.00 32 1009.5
20260904043012 70 296 1.0 4.0 0.00 0.36 0.00 32 1009.4